Location: *
(52.2090°N, 4.1550°W)
Time: 00:01:45
(UTC+00:00)

Cosmos 1500 Rocket - Pass Details

Date: 28 October 2019
Orbit: 604 x 631 km, 82.5° (Epoch: 12 November)

Event Time Altitude Azimuth Distance (km) Brightness Sun altitude
Rises 19:08:09 0° 352° (N) 2,935 7.2 -20.8°
Reaches altitude 10° 19:10:27 10° 357° (N) 2,020 6.3 -21.1°
Enters shadow 19:14:12 49° 43° (NE) 820 3.9 -21.7°
